User: anonymous   Login
Location: Pulvis Stellarum Observatory
(41.6962°N, 71.4263°W)
Time: 05:13:26
(UTC-04:00)
Language:

Cosmos 1758 - Orbit

View from above orbital plane
View from above orbital plane
View from above satellite
View from above satellite

Ground track
Ground track

The orbit data is extracted from the following two-line orbital elements,

1 16791U 86046A   16242.31732899  .00000138  00000-0  78499-5 0  9999
2 16791  82.4722 316.3791 0016698   7.8526 352.2958 15.04108581641805
Epoch (UTC): 29 August 2016 07:36:57
Eccentricity: 0.0016698
inclination: 82.4722°
perigee height: 542 km
apogee height: 566 km
right ascension of ascending node: 316.3791°
argument of perigee: 7.8526°
revolutions per day: 15.04108581
mean anomaly at epoch: 352.2958°
orbit number at epoch: 64180

The dashed part of the orbit path shows where the satellite is in the earth's shadow,  

DLR